Savanna, IA

6:55 AM CDT on April 24, 2018 (GMT -0500)
Tri-Township

Weather History for KSFY - February, 2014

Change the Weather History Date:

Tuesday, February 18, 2014

  Actual Average (KCWI) Record (KCWI)
Temperature  
Mean Temperature 29 °F -  
Max Temperature 48 °F 36 °F 64 °F (2017)
Min Temperature 10 °F 21 °F -10 °F (1978)
Degree Days  
Heating Degree Days 36    
Moisture  
Dew Point 23 °F    
Average Humidity 74    
Maximum Humidity 97    
Minimum Humidity 44    
Precipitation  
Precipitation 0.00 in - - ()
Sea Level Pressure  
Sea Level Pressure 29.74 in    
Wind  
Wind Speed 5 mph (SSW)    
Max Wind Speed 24 mph    
Max Gust Speed 21 mph    
Visibility 8 miles    
Events Fog    
Averages and records for this station are not official NWS values.
T = Trace of Precipitation, MM = Missing Value Source: NWS Daily Summary

Daily Weather History Graph

Daily Weather History Graph

Search for Another Location

Airport or City:

Astronomy

Feb. 18, 2014 Rise Set
Actual Time 6:52 AM CST 5:37 PM CST
Civil Twilight 6:23 AM CST 6:05 PM CST
Nautical Twilight 5:51 AM CST 6:38 PM CST
Astronomical Twilight 5:18 AM CST 7:10 PM CST
Moon 9:35 PM CST (2/18) 8:20 AM CST (2/18)
Length of Visible Light 11h 41m
Length of Day
10h 44m
Waning Gibbous, 87% of the Moon is Illuminated
Feb 18
Waning Gibbous
Feb 22
Last Quarter
Mar 1
New
Mar 8
First Quarter
Mar 16
Full

Hourly Weather History & Observations

Time (CST) Temp. Windchill Dew Point Humidity Pressure Visibility Wind Dir Wind Speed Gust Speed Precip Events Conditions
12:15 AM 30.2 °F 24.3 °F 24.8 °F 80% 29.89 in 10.0 mi West 5.8 mph - N/A   Clear
12:35 AM 29.8 °F 26.3 °F 24.8 °F 81% 29.89 in 10.0 mi West 3.5 mph - N/A   Clear
12:55 AM 27.5 °F 23.6 °F 23.5 °F 85% 29.90 in 10.0 mi West 3.5 mph - N/A   Clear
1:15 AM 22.8 °F - 19.8 °F 88% 29.90 in 10.0 mi Calm Calm - N/A   Clear
1:35 AM 21.0 °F - 19.0 °F 92% 29.90 in 10.0 mi Calm Calm - N/A   Clear
1:55 AM 21.0 °F - 19.6 °F 94% 29.90 in 10.0 mi Calm Calm - N/A   Clear
2:15 AM 17.6 °F - 15.4 °F 91% 29.91 in 3.0 mi Calm Calm - N/A   Clear
2:35 AM 14.7 °F 9.0 °F 12.2 °F 90% 29.91 in 0.8 mi SSE 3.5 mph - N/A   Mist
2:55 AM 14.7 °F 7.3 °F 12.4 °F 90% 29.90 in 0.5 mi SE 4.6 mph - N/A Fog Light Freezing Fog
3:15 AM 12.2 °F 4.3 °F 10.0 °F 91% 29.90 in 0.2 mi SSE 4.6 mph - N/A Fog Light Freezing Fog
3:35 AM 10.2 °F -0.6 °F 7.5 °F 89% 29.90 in 0.5 mi South 6.9 mph - N/A Fog Light Freezing Fog
3:55 AM 11.8 °F 2.5 °F 8.8 °F 88% 29.89 in 0.5 mi SSE 5.8 mph - N/A Fog Light Freezing Fog
4:15 AM 12.2 °F 6.1 °F 9.3 °F 88% 29.89 in 0.2 mi SSE 3.5 mph - N/A Fog Light Freezing Fog
4:35 AM 13.6 °F 7.7 °F 10.9 °F 89% 29.89 in 0.5 mi SSE 3.5 mph - N/A Fog Light Freezing Fog
4:55 AM 11.1 °F - 8.2 °F 88% 29.89 in 0.2 mi Calm Calm - N/A Fog Light Freezing Fog
5:15 AM 13.5 °F - 11.5 °F 92% 29.88 in 0.5 mi Calm Calm - N/A Fog Light Freezing Fog
5:35 AM 12.4 °F 6.3 °F 9.5 °F 88% 29.88 in 0.2 mi SE 3.5 mph - N/A Fog Light Freezing Fog
5:55 AM 12.0 °F - 9.1 °F 88% 29.87 in 0.2 mi Calm Calm - N/A Fog Light Freezing Fog
6:15 AM 13.8 °F - 11.7 °F 91% 29.86 in 0.5 mi Calm Calm - N/A Fog Light Freezing Fog
6:35 AM 15.6 °F - 13.6 °F 92% 29.85 in 4.0 mi Calm Calm - N/A   Clear
6:55 AM 13.6 °F - 11.1 °F 90% 29.84 in 0.2 mi Calm Calm - N/A Fog Light Freezing Fog
7:15 AM 12.4 °F - 9.7 °F 89% 29.83 in 0.2 mi Calm Calm - N/A Fog Light Freezing Fog
7:35 AM 15.8 °F 10.2 °F 13.8 °F 92% 29.84 in 4.0 mi South 3.5 mph - N/A   Clear
7:55 AM 18.0 °F - 16.2 °F 93% 29.83 in 10.0 mi Calm Calm - N/A   Clear
8:15 AM 18.1 °F 12.9 °F 16.5 °F 93% 29.82 in 7.0 mi South 3.5 mph - N/A   Clear
8:35 AM 20.1 °F - 18.7 °F 94% 29.81 in 10.0 mi Calm Calm - N/A   Clear
8:55 AM 23.0 °F 18.4 °F 21.7 °F 95% 29.79 in 10.0 mi SSE 3.5 mph - N/A   Clear
9:15 AM 25.3 °F - 24.1 °F 95% 29.78 in 10.0 mi Calm Calm - N/A   Clear
9:35 AM 31.5 °F 21.4 °F 30.7 °F 97% 29.77 in 10.0 mi South 13.8 mph 17.3 mph N/A   Clear
9:55 AM 32.5 °F 21.5 °F 31.6 °F 96% 29.75 in 10.0 mi SSE 17.3 mph - N/A   Clear
10:15 AM 34.5 °F 27.3 °F 27.1 °F 74% 29.75 in 10.0 mi SSE 9.2 mph - N/A   Clear
10:35 AM 36.7 °F 30.5 °F 27.3 °F 69% 29.73 in 10.0 mi SSE 8.1 mph - N/A   Clear
10:55 AM 38.1 °F 29.1 °F 27.9 °F 67% 29.71 in 10.0 mi SSE 16.1 mph - N/A   Clear
11:15 AM 39.2 °F 29.3 °F 28.4 °F 65% 29.68 in 10.0 mi SSE 20.7 mph - N/A   Clear
11:35 AM 41.0 °F 30.9 °F 28.6 °F 61% 29.65 in 10.0 mi SSE 24.2 mph - N/A   Clear
11:55 AM 41.0 °F 34.3 °F 28.4 °F 61% 29.66 in 10.0 mi South 11.5 mph - N/A   Clear
12:15 PM 41.2 °F 36.0 °F 29.3 °F 63% 29.66 in 10.0 mi SSE 8.1 mph - N/A   Clear
12:35 PM 40.5 °F 35.1 °F 29.7 °F 65% 29.66 in 10.0 mi SSE 8.1 mph - N/A   Clear
12:55 PM 40.1 °F 34.1 °F 30.0 °F 67% 29.65 in 10.0 mi SSE 9.2 mph - N/A   Clear
1:15 PM 41.0 °F 34.7 °F 30.0 °F 65% 29.64 in 10.0 mi SSE 10.4 mph - N/A   Scattered Clouds
1:35 PM 40.8 °F 34.5 °F 30.2 °F 66% 29.63 in 10.0 mi SSE 10.4 mph - N/A   Clear
1:55 PM 41.9 °F 37.5 °F 30.0 °F 63% 29.63 in 10.0 mi South 6.9 mph - N/A   Clear
2:15 PM 47.3 °F - 27.5 °F 46% 29.62 in 10.0 mi SSW 13.8 mph 20.7 mph N/A   Clear
2:35 PM 48.2 °F - 27.3 °F 44% 29.62 in 10.0 mi SSW 13.8 mph 19.6 mph N/A   Clear
2:55 PM 47.3 °F - 27.7 °F 47% 29.62 in 10.0 mi SSW 9.2 mph - N/A   Clear
3:15 PM 48.0 °F - 27.5 °F 45% 29.62 in 10.0 mi SSW 10.4 mph 17.3 mph N/A   Clear
3:35 PM 47.7 °F - 27.5 °F 46% 29.62 in 10.0 mi SSW 12.7 mph 16.1 mph N/A   Clear
3:55 PM 46.8 °F - 28.0 °F 48% 29.62 in 10.0 mi SSW 8.1 mph - N/A   Clear
4:15 PM 46.4 °F 44.3 °F 28.2 °F 49% 29.63 in 10.0 mi SSW 4.6 mph - N/A   Clear
4:35 PM 45.5 °F 42.5 °F 28.4 °F 51% 29.63 in 10.0 mi SW 5.8 mph - N/A   Clear
4:55 PM 45.9 °F 41.7 °F 28.2 °F 50% 29.62 in 10.0 mi SSW 8.1 mph - N/A   Clear
5:15 PM 44.6 °F 41.4 °F 28.4 °F 53% 29.63 in 10.0 mi SSW 5.8 mph - N/A   Clear
5:35 PM 44.1 °F 39.0 °F 28.6 °F 55% 29.63 in 10.0 mi SSW 9.2 mph - N/A   Clear
5:55 PM 43.0 °F 37.7 °F 28.9 °F 58% 29.64 in 10.0 mi SSW 9.2 mph - N/A   Clear
6:15 PM 41.4 °F 37.6 °F 29.3 °F 62% 29.65 in 10.0 mi SSW 5.8 mph - N/A   Clear
6:35 PM 40.3 °F 36.3 °F 29.3 °F 65% 29.65 in 10.0 mi SSW 5.8 mph - N/A   Clear
6:55 PM 41.7 °F 37.3 °F 29.3 °F 61% 29.65 in 10.0 mi SSW 6.9 mph - N/A   Clear
7:15 PM 39.7 °F 34.9 °F 29.1 °F 66% 29.65 in 10.0 mi South 6.9 mph - N/A   Clear
7:35 PM 38.8 °F 35.4 °F 29.1 °F 68% 29.65 in 10.0 mi SSW 4.6 mph - N/A   Clear
7:55 PM 39.7 °F 34.9 °F 29.3 °F 66% 29.66 in 10.0 mi SW 6.9 mph - N/A   Clear
8:15 PM 40.8 °F 36.2 °F 29.3 °F 64% 29.66 in 10.0 mi SW 6.9 mph - N/A   Clear
8:35 PM 38.8 °F 34.6 °F 28.9 °F 68% 29.67 in 10.0 mi WSW 5.8 mph - N/A   Clear
8:55 PM 39.4 °F 37.2 °F 29.3 °F 67% 29.67 in 10.0 mi West 3.5 mph - N/A   Clear
9:15 PM 38.5 °F 35.0 °F 29.1 °F 69% 29.67 in 10.0 mi West 4.6 mph - N/A   Clear
9:35 PM 37.8 °F 34.2 °F 28.9 °F 71% 29.67 in 10.0 mi WSW 4.6 mph - N/A   Clear
9:55 PM 37.8 °F 34.2 °F 28.9 °F 71% 29.68 in 10.0 mi West 4.6 mph - N/A   Clear
10:15 PM 37.0 °F 31.0 °F 28.6 °F 71% 29.68 in 10.0 mi WNW 8.1 mph - N/A   Clear
10:35 PM 36.1 °F 31.4 °F 28.2 °F 73% 29.69 in 10.0 mi NW 5.8 mph - N/A   Clear
10:55 PM 35.2 °F 31.2 °F 27.9 °F 74% 29.69 in 10.0 mi NW 4.6 mph - N/A   Clear
11:35 PM 34.3 °F 27.7 °F 27.5 °F 76% 29.69 in 10.0 mi NW 8.1 mph - N/A   Clear
11:55 PM 33.8 °F - 27.5 °F 78% 29.70 in 10.0 mi Calm Calm - N/A   Scattered Clouds